Regional Weather Roundup
Issued by NWS

Home | Current Version | Previous Version | Text Only | Print | Product List | Glossary On
Versions: 1 2 3 4 5 6 7 8 9 10 11 12 13 14 15 16 17 18 19 20 21 22 23 24 25 26 27 28 29 30 31 32 33 34 35 36 37 38 39 40 41 42 43 44 45 46 47 48 49 50
000
ASUS44 KOUN 241210
RWROK

WEATHER ROUNDUP FOR OKLAHOMA
NATIONAL WEATHER SERVICE NORMAN OK
600 AM CST MON NOV 24 2014

NOTE: "FAIR" INDICATES FEW OR NO CLOUDS BELOW 12,000 FEET WITH NO
      SIGNIFICANT WEATHER AND/OR OBSTRUCTIONS TO VISIBILITY.

OKZ001>007-009>012-014-015-017-241300-
NORTHWEST OKLAHOMA AND THE PANHANDLE

CITY           SKY/WX    TMP DP  RH WIND       PRES   REMARKS
GAGE           CLEAR     30  21  69 W10       29.93R WCI  21
6HR MIN TEMP:  27; 6HR MAX TEMP:  33;

$$

OKZ016-021>023-033>039-044-045-241300-
SOUTHWEST OKLAHOMA

CITY           SKY/WX    TMP DP  RH WIND       PRES   REMARKS
LAWTON/REGL    CLEAR     37  25  61 W5        29.96R WCI  33
6HR MIN TEMP:  36; 6HR MAX TEMP:  46;

LAWTON/FT SILL CLEAR     41  21  46 NW8       29.94R
FREDERICK      CLEAR     34  26  72 W9        29.95R WCI  27
CLINTON        CLEAR     38  21  50 W14       29.95R WCI  30
HOBART         CLEAR     33  24  69 NW9       29.96R WCI  25
ALTUS AFB      PTCLDY    34  25  69 NW9       29.98R WCI  27
$$

OKZ018>020-024>031-241300-
CENTRAL OKLAHOMA

CITY           SKY/WX    TMP DP  RH WIND       PRES   REMARKS
OKLAHOMA CITY  CLEAR     38  24  57 W10       29.90R WCI  31
6HR MIN TEMP:  36; 6HR MAX TEMP:  41;

OKC/WILEY POST CLEAR     39  24  55 W9        29.90R WCI  33
OKC/TINKER AFB CLEAR     38  24  58 W7        29.90R WCI  32
STILLWATER     CLEAR     33  26  75 W7        29.86R WCI  27
GUTHRIE        CLEAR     35  25  66 W8        29.89R WCI  29
$$

OKZ008-013-054>072-241300-
NORTHEAST OKLAHOMA

CITY           SKY/WX    TMP DP  RH WIND       PRES   REMARKS
TULSA          CLEAR     37  30  75 W7        29.84R WCI  32
6HR MIN TEMP:  36; 6HR MAX TEMP:  45;

TULSA/JONES    CLEAR     37  29  72 SW5       29.86R WCI  33
PONCA CITY     CLEAR     34  25  69 W10       29.83R WCI  26
BARTLESVILLE   CLEAR     35  28  75 W8        29.82R WCI  29
MUSKOGEE       CLEAR     36  31  82 SW9       29.87R WCI  29
$$

OKZ032-040>043-046>053-073>077-241300-
SOUTH CENTRAL/SOUTHEAST OKLAHOMA

CITY           SKY/WX    TMP DP  RH WIND       PRES   REMARKS
ARDMORE/DWNTWN CLEAR     37  32  81 NW5       29.94R WCI  34
MCALESTER      PTCLDY    39  31  72 NW5       29.90R
$$




USA.gov is the U.S. government's official web portal to all federal, state and local government web resources and services.